Temp
13 13 13 13 13 13 13 13 13 13 13 12 12 12 13 13 13 13 12 12 12 13 13 13 13 13 13 12 13 13 13 13 13 13 13 14 14 13 13 13 13 13 13
12 12 12 12 12 11 11 11 12 12 12 12 12 12 12 12 12 12 12 13 13 13 13 13 13 13 13 13 13 13 13 13 13 13 13 13 13 13 13 13 13 12 12
12 11 11 11 10 10 10 10 11 11 11 11 11 11 11 12 12 12 12 12 12 12 12 12 12 13 13 13 13 13 13 13 13 13 13 13 14 13 13 13 13 12 12
12 11 11 10 10 10 9 10 10 10 10 10 10 10 10 10 11 11 11 11 11 11 11 11 11 12 12 12 13 13 13 12 12 13 13 13 13 13 13 13 12 12 12
12 11 10 9 9 9 9 9 9 9 9 9 9 10 10 10 10 10 10 10 10 10 10 10 11 11 11 12 12 13 13 13 13 13 12 13 12 12 11 12 12 12 12
11 10 9 8 8 9 8 8 8 8 8 8 8 9 10 10 10 10 10 10 10 9 10 10 10 11 11 11 11 11 12 13 13 13 13 12 12 12 11 11 11 11 11
10 9 9 8 8 8 8 8 8 8 8 8 8 10 11 10 10 10 10 10 10 10 10 10 10 10 11 11 11 11 11 12 12 12 12 13 13 13 12 11 11 11 11
10 9 9 8 7 8 7 7 7 8 8 7 8 8 9 10 10 10 10 10 10 9 9 10 10 10 10 10 10 10 11 11 11 11 12 12 13 12 13 13 12 11 10
9 9 9 8 8 8 8 7 7 7 7 8 7 7 7 7 6 9 9 9 9 9 9 9 9 10 10 9 9 10 10 11 11 11 10 11 12 13 12 12 11 12 11
9 9 8 8 8 8 8 7 7 6 6 7 7 7 6 6 6 6 7 8 8 8 8 8 9 9 9 9 9 8 9 10 11 11 11 11 11 12 11 11 11 11 11
9 9 8 8 8 8 8 7 7 6 6 6 6 6 6 6 6 5 6 6 8 8 8 8 9 7 8 8 8 8 8 10 11 10 10 10 11 11 11 11 11 11 11
9 9 8 8 7 7 8 7 6 6 6 6 5 5 5 5 5 6 6 6 7 8 8 8 8 7 8 8 8 8 9 8 8 9 9 11 10 10 10 10 11 10 10
9 9 8 8 7 7 7 6 5 5 5 5 5 5 5 5 6 6 6 6 6 7 7 8 8 7 8 8 8 8 8 9 8 7 8 9 9 8 10 10 10 10 10
9 9 9 8 8 7 8 6 4 5 5 5 5 5 5 5 5 6 6 5 5 5 6 7 7 7 7 7 8 7 8 8 8 8 8 9 8 8 8 9 9 10 10
8 8 9 9 8 8 7 7 5 4 4 5 6 6 6 6 6 5 6 5 5 5 5 6 6 6 6 6 6 6 6 7 7 7 8 8 8 8 8 8 8 9 8
9 8 8 8 8 8 7 7 7 6 6 6 6 6 6 6 6 5 6 6 5 4 5 5 5 5 6 6 6 5 5 6 6 7 7 7 8 8 8 7 8 8 8
9 9 9 8 8 8 7 6 6 6 6 6 6 6 6 6 6 6 6 6 5 4 4 4 5 5 5 5 6 5 5 6 7 6 7 7 7 7 7 7 7 7 7
9 9 8 8 8 8 8 7 7 6 6 6 6 6 6 6 6 6 6 6 5 5 5 4 4 4 4 5 5 5 5 5 5 6 6 6 7 7 7 7 6 6 6
9 9 9 8 8 7 7 7 7 7 6 6 6 6 6 6 6 6 5 5 5 5 5 5 3 3 3 3 4 4 4 4 4 5 5 6 6 6 6 5 5 5 5
9 9 9 8 8 8 7 7 7 7 6 6 6 6 6 6 6 5 5 5 5 5 5 5 5 4 2 3 3 4 4 4 5 5 4 4 4 4 5 5 5 5 4
8 9 9 9 8 8 7 7 7 7 7 7 6 6 5 5 5 5 5 5 5 5 5 4 4 4 4 4 4 4 4 4 4 4 4 4 4 4 4 4 4 4 4
8 8 8 8 8 8 8 7 7 6 6 6 6 5 5 5 5 5 5 4 4 4 4 4 4 4 4 4 4 4 3 3 3 3 3 3 3 3 2 2 3 3 3
8 7 8 7 7 7 7 7 6 6 6 6 6 6 5 5 4 4 4 4 4 4 4 3 3 3 3 3 3 3 3 3 3 3 2 3 2 2 2 2 2 2 2
7 7 7 7 7 7 7 6 5 5 5 6 6 6 5 5 5 4 3 3 3 3 3 3 3 3 2 2 2 2 2 2 2 2 2 2 2 2 2 1 2 1 -0
6 7 7 6 6 7 6 5 5 5 5 6 5 5 5 5 4 4 3 3 3 3 2 2 2 2 2 2 2 2 2 1 1 2 2 1 1 1 1 1 1 -0 -1
5 5 6 6 6 6 6 5 4 4 4 5 5 5 5 5 4 3 3 2 3 3 2 2 2 2 2 1 1 1 1 1 1 1 1 1 1 0 0 0 -0 -0 -1
Height
1522 1520 1519 1517 1515 1513 1512 1510 1509 1508 1508 1508 1508 1508 1507 1507 1506 1506 1505 1505 1504 1503 1502 1501 1501 1500 1500 1500 1500 1500 1500 1500 1501 1501 1502 1502 1503 1503 1504 1504 1505 1506 1506
1517 1515 1513 1512 1510 1507 1506 1504 1503 1502 1502 1501 1501 1502 1501 1501 1501 1500 1500 1499 1499 1498 1497 1495 1495 1495 1494 1494 1493 1493 1494 1494 1495 1495 1496 1496 1497 1498 1499 1499 1501 1502 1503
1514 1512 1509 1507 1505 1503 1501 1499 1498 1496 1495 1495 1495 1495 1495 1495 1495 1495 1494 1493 1492 1492 1490 1488 1487 1487 1486 1486 1485 1485 1486 1485 1485 1487 1489 1490 1490 1491 1493 1495 1497 1498 1498
1511 1508 1505 1503 1502 1500 1498 1496 1494 1493 1491 1490 1489 1489 1489 1489 1489 1489 1489 1488 1487 1485 1483 1481 1479 1478 1478 1478 1477 1477 1477 1476 1467 1477 1480 1482 1483 1483 1485 1487 1490 1493 1493
1507 1504 1502 1500 1499 1497 1496 1494 1493 1490 1488 1487 1485 1484 1484 1483 1483 1484 1484 1483 1482 1480 1478 1475 1474 1472 1471 1471 1471 1470 1469 1468 1468 1469 1471 1473 1474 1474 1472 1479 1480 1483 1488
1504 1501 1499 1497 1496 1495 1493 1492 1491 1489 1488 1485 1483 1482 1480 1480 1479 1480 1479 1479 1478 1476 1474 1471 1468 1466 1465 1463 1462 1461 1460 1460 1460 1461 1462 1464 1466 1467 1468 1471 1473 1475 1479
1501 1498 1496 1495 1493 1492 1491 1490 1488 1488 1487 1485 1482 1479 1478 1477 1476 1477 1477 1476 1474 1472 1469 1466 1464 1462 1460 1458 1456 1455 1453 1452 1451 1452 1452 1454 1456 1458 1456 1455 1465 1469 1469
1499 1496 1493 1492 1491 1489 1489 1489 1487 1486 1486 1484 1482 1479 1476 1476 1474 1475 1474 1473 1471 1469 1466 1463 1460 1457 1455 1452 1450 1448 1446 1444 1442 1441 1443 1445 1446 1449 1451 1453 1456 1461 1461
1498 1494 1491 1489 1488 1487 1487 1486 1486 1485 1484 1483 1482 1482 1479 1477 1474 1471 1471 1470 1468 1465 1462 1459 1456 1453 1451 1449 1447 1443 1441 1438 1436 1433 1434 1436 1438 1441 1443 1445 1449 1453 1453
1496 1493 1490 1487 1486 1484 1484 1484 1484 1483 1483 1481 1480 1480 1480 1478 1476 1471 1467 1466 1465 1462 1459 1455 1453 1450 1449 1446 1443 1439 1435 1432 1429 1427 1427 1429 1431 1435 1438 1440 1442 1443 1445
1495 1492 1489 1487 1484 1482 1481 1481 1481 1481 1480 1479 1479 1477 1477 1475 1474 1472 1465 1462 1462 1460 1456 1453 1451 1448 1446 1444 1441 1437 1431 1423 1418 1423 1424 1420 1425 1431 1433 1433 1438 1432 1441
1494 1491 1488 1485 1482 1479 1478 1477 1477 1477 1477 1477 1476 1475 1475 1475 1473 1470 1466 1461 1458 1457 1455 1452 1450 1448 1446 1443 1441 1438 1431 1427 1417 1419 1421 1418 1420 1421 1424 1432 1435 1438 1437
1492 1489 1486 1483 1480 1477 1475 1474 1474 1474 1474 1474 1474 1473 1473 1472 1470 1469 1466 1462 1459 1455 1453 1451 1449 1447 1445 1443 1440 1437 1434 1432 1426 1422 1422 1422 1423 1425 1427 1432 1432 1434 1434
1489 1487 1484 1481 1479 1476 1473 1472 1471 1471 1471 1471 1470 1470 1470 1469 1468 1466 1463 1461 1458 1455 1452 1449 1447 1446 1444 1442 1440 1438 1435 1433 1431 1428 1426 1425 1426 1426 1430 1432 1433 1432 1433
1486 1484 1481 1479 1477 1475 1473 1471 1470 1469 1469 1468 1467 1467 1467 1465 1464 1462 1460 1459 1457 1455 1452 1449 1447 1445 1443 1442 1440 1438 1437 1434 1432 1430 1429 1429 1428 1430 1430 1432 1432 1431 1433
1481 1480 1478 1476 1474 1472 1471 1469 1468 1467 1466 1466 1465 1464 1463 1461 1460 1458 1457 1455 1454 1453 1451 1448 1446 1444 1443 1441 1440 1439 1437 1436 1434 1431 1429 1429 1429 1430 1431 1431 1429 1429 1430
1477 1475 1474 1473 1471 1469 1467 1466 1465 1464 1464 1463 1462 1461 1459 1458 1456 1454 1453 1452 1451 1450 1448 1447 1444 1442 1440 1439 1438 1437 1436 1434 1434 1433 1431 1430 1429 1429 1428 1426 1426 1426 1425
1472 1470 1469 1468 1467 1466 1464 1463 1462 1461 1460 1459 1458 1457 1455 1454 1452 1451 1449 1448 1447 1446 1444 1442 1441 1441 1439 1438 1436 1434 1433 1433 1431 1430 1428 1428 1427 1425 1424 1423 1423 1422 1422
1467 1465 1463 1462 1462 1461 1460 1459 1458 1457 1456 1455 1454 1453 1452 1450 1449 1447 1446 1444 1443 1441 1440 1438 1437 1436 1435 1435 1434 1433 1431 1429 1428 1426 1426 1425 1424 1423 1423 1423 1422 1422 1423
1461 1459 1457 1456 1455 1455 1454 1454 1453 1452 1451 1450 1449 1448 1447 1446 1445 1444 1443 1441 1440 1438 1437 1435 1433 1433 1433 1431 1431 1430 1429 1427 1426 1425 1425 1424 1423 1422 1421 1420 1420 1421 1421
1454 1453 1451 1449 1448 1447 1447 1448 1447 1446 1445 1444 1443 1443 1442 1441 1441 1440 1439 1438 1437 1435 1434 1432 1430 1429 1428 1428 1427 1426 1426 1425 1424 1423 1422 1422 1422 1422 1421 1420 1419 1419 1418
1447 1446 1444 1443 1441 1439 1439 1440 1440 1439 1439 1439 1438 1438 1437 1435 1435 1434 1434 1433 1433 1432 1431 1429 1428 1427 1426 1425 1424 1424 1423 1423 1423 1422 1421 1420 1420 1420 1420 1419 1418 1417 1415
1440 1438 1437 1436 1434 1433 1433 1432 1432 1431 1431 1431 1431 1431 1431 1431 1430 1429 1428 1428 1427 1427 1427 1427 1426 1426 1424 1423 1422 1421 1420 1420 1421 1420 1419 1418 1418 1417 1417 1416 1415 1414 1413
1432 1430 1429 1428 1427 1425 1425 1425 1425 1424 1423 1423 1424 1424 1423 1423 1424 1424 1424 1423 1423 1422 1422 1422 1422 1422 1421 1421 1421 1419 1418 1418 1417 1417 1417 1417 1416 1415 1414 1413 1412 1411 1410
1425 1423 1421 1420 1419 1419 1418 1417 1417 1416 1415 1415 1415 1415 1415 1416 1416 1416 1416 1416 1417 1418 1418 1418 1417 1417 1417 1417 1416 1417 1416 1415 1413 1413 1413 1413 1413 1412 1411 1410 1409 1408 1408
1418 1416 1415 1413 1412 1411 1411 1410 1409 1408 1407 1407 1407 1407 1407 1408 1408 1409 1409 1410 1411 1412 1412 1414 1413 1413 1414 1414 1413 1412 1413 1412 1410 1409 1409 1410 1409 1409 1407 1406 1406 1405 1405
Wind_Speed
26 26 27 27 28 28 29 29 30 31 31 30 29 29 29 29 28 28 27 26 25 26 27 28 27 27 28 30 30 30 29 28 27 28 29 29 27 26 26 25 24 22 20
22 23 23 23 24 25 27 28 29 30 30 31 32 32 32 31 31 31 32 31 32 34 34 33 31 29 30 32 34 34 34 32 31 29 30 32 31 29 28 27 26 24 22
21 23 24 23 22 22 22 22 22 24 25 27 28 28 29 30 31 32 33 33 33 33 33 34 35 34 34 33 33 35 37 39 35 33 32 32 35 34 32 29 28 26 25
23 24 24 23 22 21 20 19 19 18 18 20 22 23 25 25 25 25 27 27 28 29 30 31 33 33 34 36 38 37 36 38 45 36 36 37 36 38 37 34 31 29 29
22 22 22 21 21 19 17 17 16 17 16 15 16 18 20 21 22 22 21 22 22 23 22 23 25 28 29 30 34 38 41 42 40 37 40 41 40 40 39 36 34 32 32
19 20 17 18 18 16 15 14 15 13 14 14 15 16 16 14 13 13 13 14 14 16 20 22 24 24 24 24 24 28 36 40 43 43 40 39 40 44 42 37 33 33 35
19 18 16 15 13 12 13 13 14 13 10 12 14 14 11 6 7 5 13 11 11 13 17 19 20 22 24 25 27 26 24 28 34 41 43 38 39 36 43 46 38 36 36
19 18 17 15 13 13 10 10 12 13 12 11 13 15 10 8 3 15 5 7 13 12 16 17 19 20 20 22 23 25 26 25 25 27 34 34 34 28 33 30 37 36 36
18 19 16 13 13 13 11 10 11 12 12 10 10 6 5 5 21 3 16 9 13 14 15 15 17 17 18 21 22 25 26 25 27 27 25 26 30 26 27 25 34 40 38
18 18 17 14 13 13 12 12 11 10 12 12 11 7 8 12 6 11 11 18 18 15 17 17 16 15 17 18 20 20 17 20 25 22 21 22 26 28 23 26 28 26 31
17 17 16 15 15 14 12 12 12 11 11 11 12 13 13 12 10 8 22 27 22 15 18 18 17 15 16 18 21 22 24 33 29 13 15 22 24 22 15 12 16 3 12
17 16 16 17 17 18 14 11 12 13 12 12 13 12 11 10 11 14 20 24 22 17 17 18 17 12 14 14 15 19 20 26 20 8 2 14 17 20 17 15 12 4 3
17 17 16 17 18 18 14 11 11 12 10 11 13 11 11 11 11 13 16 19 13 20 14 15 16 11 10 13 16 15 14 14 20 16 17 13 11 8 8 3 4 8 6
18 18 17 16 17 17 13 11 11 10 10 13 13 10 9 10 14 17 17 14 16 11 13 15 13 12 12 11 13 12 12 11 11 12 11 10 7 5 0 3 4 5 7
18 18 18 17 16 15 14 13 11 9 11 12 11 11 12 13 15 15 15 13 12 11 13 11 11 15 15 14 14 11 8 7 9 11 10 7 3 3 5 7 7 8 10
20 19 18 17 15 14 13 13 12 9 10 11 12 13 13 14 15 15 14 13 13 14 15 18 19 20 14 13 12 11 9 7 10 10 9 7 7 8 8 8 9 9 9
20 21 20 19 18 16 14 13 12 12 14 14 14 14 15 15 14 14 14 13 12 14 17 19 19 19 18 15 12 12 11 11 13 12 10 9 8 7 9 9 9 9 9
21 22 22 22 20 18 17 16 16 15 16 16 16 17 17 16 15 13 14 14 14 14 16 15 15 15 15 14 14 12 13 12 15 13 9 7 7 7 9 10 10 10 9
21 22 24 24 23 22 20 19 19 18 19 19 19 19 19 17 15 15 14 14 15 15 16 17 15 15 14 13 13 14 12 12 11 10 9 8 8 7 6 6 6 6 7
22 22 24 25 25 25 24 22 21 21 21 21 21 21 20 18 17 15 15 15 15 15 15 17 17 15 14 13 12 13 12 11 10 9 7 6 7 6 6 6 6 6 8
25 24 24 25 25 27 26 25 24 23 23 22 22 21 20 19 18 17 16 16 16 16 16 16 16 15 14 14 13 12 11 10 8 7 7 6 7 6 6 7 8 10 12
26 25 26 26 26 26 26 26 26 25 25 25 24 22 21 20 18 17 17 17 17 16 16 16 16 16 14 13 12 11 9 8 7 8 8 8 8 7 8 9 11 13 15
26 26 26 27 28 27 26 26 26 27 27 25 24 24 23 22 21 19 19 18 17 17 16 16 16 15 14 12 11 11 10 9 9 9 9 8 8 10 9 11 12 14 14
26 27 28 27 27 27 25 25 25 27 29 28 26 25 23 22 22 21 21 21 18 17 16 16 15 14 14 12 12 11 11 11 10 11 9 9 9 10 11 12 14 12 10
26 26 26 27 26 26 24 23 24 26 29 30 29 27 26 25 23 22 23 22 21 19 18 17 16 15 14 14 13 13 13 12 11 11 10 11 10 9 11 13 13 12 11
23 22 22 22 23 23 23 23 23 25 28 31 31 30 28 27 25 23 24 23 23 19 19 18 17 16 16 16 16 15 15 14 13 10 10 9 9 9 6 8 9 10 14
Wind_Direction
294 291 289 288 286 284 281 278 275 274 272 271 272 274 275 277 277 280 281 282 284 284 283 282 282 277 271 269 269 268 267 271 272 270 267 264 260 257 255 254 252 251 248
300 299 299 297 295 291 287 285 282 278 274 273 272 270 272 275 278 281 282 283 283 282 283 285 282 280 275 268 267 269 267 269 271 270 267 263 260 258 256 255 253 249 248
303 301 301 301 300 301 300 297 293 288 283 278 277 276 276 274 275 277 280 283 284 283 283 281 278 273 272 273 272 270 265 266 264 266 267 265 260 257 256 257 256 253 248
306 302 300 298 300 305 306 307 308 302 295 289 284 278 275 275 275 277 280 283 285 287 286 284 283 280 273 271 269 269 268 266 254 263 266 266 262 257 253 252 254 254 251
311 306 298 296 298 301 305 308 313 315 314 310 299 292 288 284 281 281 284 288 291 293 295 291 290 288 286 280 273 271 271 272 272 267 266 266 267 264 252 251 249 252 253
318 312 301 292 297 295 300 304 306 313 319 316 312 309 306 303 297 289 291 295 299 300 299 295 291 288 285 284 280 274 267 266 265 266 265 264 267 268 259 247 249 255 254
334 324 308 299 294 297 306 313 311 317 327 323 323 317 325 316 279 291 316 308 304 304 304 301 301 298 297 291 284 284 285 276 271 264 264 262 264 270 270 250 258 252 251
339 328 313 301 302 298 298 305 308 313 322 330 333 336 335 336 127 310 332 308 327 331 321 312 303 297 294 304 293 289 283 279 272 267 267 268 259 256 258 259 246 251 258
344 342 327 309 294 302 300 300 299 307 315 323 328 332 330 308 323 298 324 324 338 343 329 319 311 305 296 306 309 305 284 282 290 280 255 258 253 250 249 251 249 252 253
341 343 342 325 305 298 291 288 290 299 304 308 314 295 294 290 310 308 297 324 349 354 347 342 334 328 329 326 329 322 316 300 299 292 257 248 241 244 254 263 240 254 250
332 337 340 340 330 312 291 281 279 284 291 302 301 303 303 300 298 286 309 325 336 351 345 342 344 350 359 6 356 340 334 313 306 265 276 250 235 235 219 233 180 169 89
327 325 327 329 334 321 295 285 285 284 285 295 301 300 302 303 297 303 305 314 325 342 338 336 346 345 342 337 345 354 18 357 29 99 23 29 171 137 155 189 208 244 280
322 320 320 324 332 334 294 281 289 292 290 284 286 295 300 301 295 295 295 307 310 327 328 328 334 340 345 350 343 355 352 354 359 15 31 42 59 109 123 157 236 275 285
313 317 318 321 327 333 315 292 289 290 278 276 279 267 276 281 280 285 286 289 311 311 322 317 330 334 337 341 338 2 356 11 8 11 17 10 9 21 158 298 299 297 293
300 307 314 316 319 328 323 312 302 286 277 278 280 280 281 281 284 288 290 283 289 299 307 304 319 324 327 332 331 340 358 15 7 358 355 8 16 286 286 293 289 283 280
292 295 302 306 307 312 316 315 316 308 299 292 289 289 290 293 288 279 282 288 282 274 276 286 302 310 310 318 314 315 329 329 339 344 337 331 326 314 293 285 290 283 278
287 287 292 299 302 298 296 295 295 289 289 291 289 293 297 299 303 281 275 275 278 278 276 287 292 300 302 297 292 298 300 302 306 313 309 301 295 299 295 293 293 293 298
287 282 282 287 293 295 293 292 289 286 286 286 285 292 298 297 298 290 274 270 271 276 274 279 284 288 294 298 295 289 288 297 295 300 299 295 300 317 317 324 322 320 316
295 287 281 281 286 289 290 288 286 284 284 284 286 290 294 292 291 289 283 275 276 271 271 278 276 271 275 277 278 280 278 280 291 302 305 309 309 300 298 300 299 301 299
291 290 286 281 279 280 281 284 285 283 282 282 284 288 292 291 289 285 284 281 277 274 272 273 278 276 265 262 262 263 269 273 278 281 287 293 293 292 290 294 298 297 297
285 285 284 282 279 276 276 279 282 282 281 280 280 283 286 286 287 286 286 285 281 279 276 275 272 271 266 263 262 262 264 266 267 262 270 283 285 286 293 299 301 299 298
283 284 283 283 282 278 274 272 274 277 280 280 281 281 281 280 281 280 280 279 279 278 276 274 274 272 270 265 262 259 256 255 262 257 254 269 269 270 279 290 299 298 295
283 282 283 282 281 282 278 272 269 271 273 276 278 279 280 280 278 278 278 278 276 275 274 272 273 275 272 264 257 257 257 257 259 266 270 269 260 267 281 293 294 289 289
290 286 282 283 281 279 278 275 273 270 270 271 273 275 275 275 274 276 277 276 274 270 267 267 267 265 264 264 260 257 261 265 267 270 269 274 268 266 282 291 289 287 262
291 291 286 281 282 279 278 275 274 269 268 267 268 269 270 270 269 267 268 271 272 271 269 266 263 260 259 257 260 266 265 266 270 272 266 270 272 273 289 287 281 275 264
297 295 291 288 285 281 280 279 277 273 270 269 268 265 265 266 266 262 265 267 267 267 266 266 266 264 262 262 262 260 263 262 262 276 269 260 273 293 299 293 277 277 282